When you browse on this site, cookies collect data to enhance your experience and personalize the content and advertising you see.
Visit our Privacy Policy to learn more. By continuing to use the site, you agree to this use of cookies and data.
  • en France
  • Liste des pays
  • À 7 jours
  • Température de l'eau
  • Carte météo
  • Widgets météo
  • user-avatar
    Se connecter

    Météo par heure à Saarbrücken

    Ce jour, 16 Septembre, Lundi

    Heure Température Précipitation Vent Pression Humidité
    00:00 +13°C° 0 mm 0 m/s 744 mmHg 75%
    01:00 +13°C° 0 mm 0 m/s 744 mmHg 75%
    02:00 +14°C° 0 mm 1 m/s 743 mmHg 75%
    03:00 +13°C° 0 mm 1 m/s 743 mmHg 76%
    04:00 +12°C° 0 mm 0 m/s 743 mmHg 74%
    05:00 +13°C° 0 mm 0 m/s 743 mmHg 73%
    06:00 +13°C° 0 mm 0 m/s 743 mmHg 72%
    07:00 +15°C° 0 mm 0 m/s 743 mmHg 64%
    08:00 +18°C° 0 mm 0 m/s 743 mmHg 57%
    09:00 +21°C° 0 mm 0 m/s 743 mmHg 49%
    10:00 +24°C° 0 mm 1 m/s 743 mmHg 44%
    11:00 +25°C° 0 mm 2 m/s 743 mmHg 40%
    12:00 +26°C° 0 mm 2 m/s 743 mmHg 35%
    13:00 +26°C° 0 mm 2 m/s 743 mmHg 35%
    14:00 +26°C° 0 mm 2 m/s 742 mmHg 36%
    15:00 +26°C° 0 mm 3 m/s 742 mmHg 36%
    16:00 +24°C° 0 mm 2 m/s 742 mmHg 45%
    17:00 +21°C° 0 mm 2 m/s 742 mmHg 54%
    18:00 +19°C° 0 mm 2 m/s 742 mmHg 62%
    19:00 +18°C° 0 mm 2 m/s 742 mmHg 67%
    20:00 +18°C° 0 mm 1 m/s 742 mmHg 72%
    21:00 +16°C° 0 mm 1 m/s 742 mmHg 77%
    22:00 +16°C° 0 mm 1 m/s 743 mmHg 78%
    23:00 +16°C° 0 mm 1 m/s 743 mmHg 79%

    Demain, 17 Septembre, Mardi

    Heure Température Précipitation Vent Pression Humidité
    00:00 +16°C° 0 mm 1 m/s 743 mmHg 80%
    01:00 +16°C° 0 mm 1 m/s 743 mmHg 82%
    02:00 +16°C° 0 mm 1 m/s 742 mmHg 84%
    03:00 +16°C° 0 mm 1 m/s 742 mmHg 86%
    04:00 +16°C° 0 mm 1 m/s 743 mmHg 87%
    05:00 +15°C° 0 mm 1 m/s 743 mmHg 88%
    06:00 +15°C° 0 mm 1 m/s 743 mmHg 89%
    07:00 +16°C° 0 mm 1 m/s 743 mmHg 81%
    08:00 +17°C° 0 mm 2 m/s 744 mmHg 74%
    09:00 +18°C° 0 mm 2 m/s 744 mmHg 67%
    10:00 +19°C° 0 mm 2 m/s 744 mmHg 59%
    11:00 +20°C° 0 mm 2 m/s 743 mmHg 51%
    12:00 +21°C° 0 mm 2 m/s 743 mmHg 43%
    13:00 +21°C° 0 mm 2 m/s 743 mmHg 41%
    14:00 +21°C° 0 mm 3 m/s 743 mmHg 40%
    15:00 +21°C° 0 mm 3 m/s 743 mmHg 38%
    16:00 +19°C° 0 mm 3 m/s 743 mmHg 47%
    17:00 +17°C° 0 mm 3 m/s 743 mmHg 56%
    18:00 +14°C° 0 mm 3 m/s 743 mmHg 65%
    19:00 +13°C° 0 mm 3 m/s 744 mmHg 69%
    20:00 +11°C° 0 mm 3 m/s 744 mmHg 74%
    21:00 +10°C° 0 mm 3 m/s 745 mmHg 78%
    22:00 +9°C° 0 mm 3 m/s 745 mmHg 80%
    23:00 +9°C° 0 mm 3 m/s 745 mmHg 83%

    Après-demain, 18 Septembre, Mercredi

    Heure Température Précipitation Vent Pression Humidité
    00:00 +8°C° 0 mm 3 m/s 746 mmHg 85%
    01:00 +8°C° 0 mm 3 m/s 746 mmHg 84%
    02:00 +7°C° 0 mm 3 m/s 746 mmHg 83%
    03:00 +7°C° 0 mm 3 m/s 746 mmHg 82%
    04:00 +7°C° 0 mm 3 m/s 746 mmHg 80%
    05:00 +7°C° 0 mm 3 m/s 746 mmHg 79%
    06:00 +7°C° 0 mm 3 m/s 746 mmHg 78%
    07:00 +8°C° 0 mm 4 m/s 746 mmHg 68%
    08:00 +11°C° 0 mm 4 m/s 747 mmHg 59%
    09:00 +13°C° 0 mm 5 m/s 747 mmHg 50%
    10:00 +14°C° 0 mm 4 m/s 746 mmHg 46%
    11:00 +15°C° 0 mm 4 m/s 746 mmHg 43%
    12:00 +17°C° 0 mm 4 m/s 746 mmHg 39%
    13:00 +17°C° 0 mm 4 m/s 746 mmHg 39%
    14:00 +17°C° 0 mm 4 m/s 746 mmHg 39%
    15:00 +18°C° 0 mm 4 m/s 745 mmHg 38%
    16:00 +16°C° 0 mm 3 m/s 745 mmHg 45%
    17:00 +13°C° 0 mm 3 m/s 746 mmHg 51%
    18:00 +12°C° 0 mm 2 m/s 746 mmHg 58%
    19:00 +10°C° 0 mm 2 m/s 746 mmHg 61%
    20:00 +9°C° 0 mm 2 m/s 747 mmHg 65%
    21:00 +8°C° 0 mm 2 m/s 747 mmHg 69%
    22:00 +8°C° 0 mm 3 m/s 747 mmHg 71%
    23:00 +8°C° 0 mm 3 m/s 747 mmHg 73%

    19 Septembre, Jeudi

    Heure Température Précipitation Vent Pression Humidité
    00:00 +8°C° 0 mm 3 m/s 747 mmHg 76%
    01:00 +7°C° 0 mm 3 m/s 747 mmHg 77%
    02:00 +7°C° 0 mm 3 m/s 747 mmHg 78%
    03:00 +7°C° 0 mm 3 m/s 747 mmHg 79%
    04:00 +7°C° 0 mm 3 m/s 747 mmHg 80%
    05:00 +7°C° 0 mm 3 m/s 747 mmHg 80%
    06:00 +7°C° 0 mm 3 m/s 748 mmHg 81%
    07:00 +9°C° 0 mm 3 m/s 748 mmHg 72%
    08:00 +11°C° 0 mm 4 m/s 748 mmHg 64%
    09:00 +13°C° 0 mm 4 m/s 749 mmHg 55%
    10:00 +14°C° 0 mm 4 m/s 748 mmHg 52%
    11:00 +15°C° 0 mm 4 m/s 748 mmHg 49%
    12:00 +17°C° 0 mm 4 m/s 748 mmHg 46%
    13:00 +17°C° 0 mm 4 m/s 748 mmHg 46%
    14:00 +17°C° 0 mm 4 m/s 748 mmHg 45%
    15:00 +16°C° 0 mm 5 m/s 747 mmHg 44%
    16:00 +14°C° 0 mm 4 m/s 748 mmHg 49%
    17:00 +13°C° 0 mm 4 m/s 748 mmHg 54%
    18:00 +11°C° 0 mm 3 m/s 748 mmHg 60%
    19:00 +10°C° 0 mm 3 m/s 748 mmHg 61%
    20:00 +9°C° 0 mm 3 m/s 748 mmHg 63%
    21:00 +8°C° 0 mm 3 m/s 749 mmHg 65%
    22:00 +8°C° 0 mm 3 m/s 749 mmHg 66%
    23:00 +8°C° 0 mm 3 m/s 749 mmHg 68%

    20 Septembre, Vendredi

    Heure Température Précipitation Vent Pression Humidité
    00:00 +7°C° 0 mm 3 m/s 748 mmHg 69%
    01:00 +7°C° 0 mm 3 m/s 748 mmHg 69%
    02:00 +6°C° 0 mm 4 m/s 748 mmHg 69%
    03:00 +6°C° 0 mm 4 m/s 748 mmHg 69%
    04:00 +6°C° 0 mm 4 m/s 748 mmHg 69%
    05:00 +6°C° 0 mm 4 m/s 748 mmHg 68%
    06:00 +6°C° 0 mm 4 m/s 748 mmHg 67%
    07:00 +8°C° 0 mm 5 m/s 748 mmHg 60%
    08:00 +10°C° 0 mm 5 m/s 748 mmHg 52%
    09:00 +13°C° 0 mm 6 m/s 748 mmHg 45%
    10:00 +14°C° 0 mm 6 m/s 748 mmHg 41%
    11:00 +16°C° 0 mm 6 m/s 747 mmHg 37%
    12:00 +17°C° 0 mm 6 m/s 747 mmHg 34%
    13:00 +17°C° 0 mm 6 m/s 746 mmHg 35%
    14:00 +17°C° 0 mm 6 m/s 746 mmHg 35%
    15:00 +17°C° 0 mm 5 m/s 746 mmHg 36%
    16:00 +16°C° 0 mm 5 m/s 745 mmHg 41%
    17:00 +14°C° 0 mm 5 m/s 745 mmHg 46%
    18:00 +12°C° 0 mm 4 m/s 745 mmHg 52%
    19:00 +12°C° 0 mm 5 m/s 745 mmHg 52%
    20:00 +12°C° 0 mm 5 m/s 745 mmHg 53%
    21:00 +10°C° 0 mm 5 m/s 745 mmHg 54%
    22:00 +10°C° 0 mm 5 m/s 745 mmHg 56%
    23:00 +10°C° 0 mm 5 m/s 745 mmHg 58%

    21 Septembre, Samedi

    Heure Température Précipitation Vent Pression Humidité
    00:00 +9°C° 0 mm 5 m/s 744 mmHg 61%
    01:00 +10°C° 0 mm 4 m/s 744 mmHg 63%
    02:00 +8°C° 0 mm 4 m/s 744 mmHg 66%
    03:00 +7°C° 0 mm 4 m/s 744 mmHg 68%
    04:00 +7°C° 0 mm 4 m/s 743 mmHg 69%
    05:00 +7°C° 0 mm 4 m/s 743 mmHg 70%
    06:00 +6°C° 0 mm 4 m/s 743 mmHg 71%
    07:00 +10°C° 0 mm 3 m/s 743 mmHg 64%
    08:00 +12°C° 0 mm 3 m/s 743 mmHg 57%
    09:00 +14°C° 0 mm 3 m/s 743 mmHg 50%
    10:00 +18°C° 0 mm 3 m/s 743 mmHg 47%
    11:00 +20°C° 0 mm 3 m/s 743 mmHg 45%
    12:00 +22°C° 0 mm 3 m/s 742 mmHg 43%
    13:00 +24°C° 0 mm 3 m/s 742 mmHg 44%
    14:00 +24°C° 0 mm 3 m/s 742 mmHg 45%
    15:00 +24°C° 0 mm 3 m/s 741 mmHg 46%
    16:00 +21°C° 0 mm 3 m/s 741 mmHg 53%
    17:00 +19°C° 0 mm 3 m/s 741 mmHg 60%
    18:00 +17°C° 0 mm 3 m/s 741 mmHg 67%
    19:00 +16°C° 0 mm 2 m/s 741 mmHg 67%
    20:00 +15°C° 0 mm 2 m/s 741 mmHg 66%
    21:00 +15°C° 0 mm 2 m/s 741 mmHg 66%
    22:00 +15°C° 0 mm 2 m/s 741 mmHg 67%
    23:00 +14°C° 0 mm 1 m/s 741 mmHg 68%
    Voir plus